軌道要素
Epoch 2017 June 16.0 TT = JDT 2457920.5
T 2017 May 28.00671 TT Rudenko
q 7.6144574 (2000.0) P Q
z -0.0003044 Peri. 187.75483 +0.19969451 +0.53587309
+/-0.0000018 Node 262.78688 +0.93753720 +0.13889625
e 1.0023180 Incl. 124.21976 +0.28486153 -0.83279521
From 154 observations 2016 Jan. 13-2018 Dec. 4, mean residual 0".6.
|